User: anonymous   Login
Location: Unspecified
(0.0000°N, 0.0000°E)
Time: 19:02:01
(UTC+01:00)
Language:

Ariane H10 - Orbit

View from above orbital plane
View from above orbital plane
View from above satellite
View from above satellite

Ground track
Ground track

The orbit data is extracted from the following two-line orbital elements,

1 19622U 88098B   16340.70065953  .00007973  00000-0  11673-2 0  9998
2 19622   3.7608 291.0890 6420645   0.2668 359.8933  3.44445797297649
Epoch (UTC): 05 December 2016 16:48:56
Eccentricity: 0.6420645
inclination: 3.7608°
perigee height: 251 km
apogee height: 24033 km
right ascension of ascending node: 291.0890°
argument of perigee: 0.2668°
revolutions per day: 3.44445797
mean anomaly at epoch: 359.8933°
orbit number at epoch: 29764

The dashed part of the orbit path shows where the satellite is in the earth's shadow,  

DLR